Dallas Love, TX

12:35 PM CDT on October 19, 2017 (GMT -0500)
Dallas Love

Weather History for KDAL - November, 2013

Change the Weather History Date:

Monday, November 11, 2013

  Actual Average Record
Temperature  
Mean Temperature 60 °F -  
Max Temperature 73 °F 64 °F 82 °F (2015)
Min Temperature 46 °F 48 °F 35 °F (1997)
Degree Days  
Heating Degree Days 6    
Growing Degree Days 10 (Base 50)    
Moisture  
Dew Point 48 °F    
Average Humidity 66    
Maximum Humidity 86    
Minimum Humidity 42    
Precipitation  
Precipitation 0.00 in - - ()
Sea Level Pressure  
Sea Level Pressure 30.23 in    
Wind  
Wind Speed 1 mph (SE)    
Max Wind Speed 6 mph    
Max Gust Speed -    
Visibility 10 miles    
Events      
Averages and records for this station are not official NWS values.
T = Trace of Precipitation, MM = Missing Value Source: NWS Daily Summary

Daily Weather History Graph

Daily Weather History Graph

Search for Another Location

Airport or City:

Trip Planner

Search our weather history database for the weather conditions in past years. The results will help you decide how hot, cold, wet, or windy it might be!

Date:

Astronomy

Nov. 11, 2013 Rise Set
Actual Time 6:54 AM CST 5:28 PM CST
Civil Twilight 6:28 AM CST 5:54 PM CST
Nautical Twilight 5:58 AM CST 6:23 PM CST
Astronomical Twilight 5:29 AM CST 6:53 PM CST
Moon 1:52 PM CST (11/11) 12:59 AM CST (11/11)
Length of Visible Light 11h 25m
Length of Day
10h 33m
Waxing Gibbous, 66% of the Moon is Illuminated
Nov 11
Waxing Gibbous
Nov 17
Full
Nov 25
Last Quarter
Dec 2
New
Dec 9
First Quarter

Hourly Weather History & Observations

Time (CST) Temp. Dew Point Humidity Pressure Visibility Wind Dir Wind Speed Gust Speed Precip Events Conditions
12:53 AM 50.0 °F 45.0 °F 83% 30.25 in 10.0 mi Calm Calm - N/A   Clear
1:53 AM 50.0 °F 45.0 °F 83% 30.25 in 10.0 mi Calm Calm - N/A   Clear
2:53 AM 50.0 °F 45.0 °F 83% 30.24 in 10.0 mi Calm Calm - N/A   Clear
3:53 AM 48.9 °F 44.1 °F 83% 30.25 in 10.0 mi Calm Calm - N/A   Clear
4:53 AM 48.0 °F 44.1 °F 86% 30.24 in 10.0 mi Calm Calm - N/A   Clear
5:53 AM 48.9 °F 44.1 °F 83% 30.25 in 10.0 mi Calm Calm - N/A   Partly Cloudy
6:53 AM 46.9 °F 43.0 °F 86% 30.26 in 8.0 mi Calm Calm - N/A   Scattered Clouds
7:53 AM 53.1 °F 46.0 °F 77% 30.27 in 8.0 mi Calm Calm - N/A   Scattered Clouds
8:53 AM 57.9 °F 48.9 °F 72% 30.28 in 7.0 mi Calm Calm - N/A   Partly Cloudy
9:53 AM 63.0 °F 48.0 °F 58% 30.28 in 8.0 mi SW 4.6 mph - N/A   Partly Cloudy
10:53 AM 66.9 °F 48.0 °F 51% 30.27 in 10.0 mi South 5.8 mph - N/A   Scattered Clouds
11:53 AM 69.1 °F 48.9 °F 49% 30.25 in 10.0 mi SSW 4.6 mph - N/A   Scattered Clouds
12:53 PM 72.0 °F 48.9 °F 44% 30.22 in 10.0 mi Variable 5.8 mph - N/A   Scattered Clouds
1:53 PM 73.0 °F 48.9 °F 42% 30.18 in 10.0 mi Variable 3.5 mph - N/A   Mostly Cloudy
2:53 PM 73.9 °F 50.0 °F 43% 30.17 in 10.0 mi Calm Calm - N/A   Mostly Cloudy
3:53 PM 73.0 °F 50.0 °F 44% 30.17 in 10.0 mi Calm Calm - N/A   Mostly Cloudy
4:53 PM 73.0 °F 50.0 °F 44% 30.17 in 10.0 mi Calm Calm - N/A   Scattered Clouds
5:53 PM 68.0 °F 52.0 °F 56% 30.17 in 10.0 mi ENE 3.5 mph - N/A   Scattered Clouds
6:53 PM 64.9 °F 52.0 °F 63% 30.19 in 10.0 mi ESE 5.8 mph - N/A   Clear
7:53 PM 61.0 °F 52.0 °F 72% 30.22 in 10.0 mi East 4.6 mph - N/A   Clear
8:53 PM 62.1 °F 51.1 °F 67% 30.23 in 10.0 mi ESE 4.6 mph - N/A   Clear
9:53 PM 57.9 °F 51.1 °F 78% 30.25 in 10.0 mi Calm Calm - N/A   Mostly Cloudy
10:53 PM 61.0 °F 52.0 °F 72% 30.27 in 10.0 mi Calm Calm - N/A   Overcast
11:53 PM 62.1 °F 53.1 °F 72% 30.28 in 10.0 mi Calm Calm - N/A   Overcast